This demonstration page uses our WeatherBlox Daily Observations layout. Learn more.

Left ArrowRight Arrow

36.17497, -115.13722

Hourly Observations for October 30, 2016

Temp ( °F °C ) Dew Point ( °F °C ) Humidity (%) Winds ( mph kmh ) Pressure ( in mb ) Visibility ( mi km ) Precip ( " mm )
12:53 am 00:53 Clear 69 20.6 52 11.1 55 55 NW 3 6 29.99 1016 10 16.0934 0 0
1:53 am 01:53 Clear 69 20.6 52 11.1 55 55 Calm 29.98 1015 10 16.0934 0 0
2:53 am 02:53 Clear 69 20.6 53 11.7 57 57 Calm 29.96 1015 10 16.0934 0 0
3:53 am 03:53 Partly Cloudy 68 20 52 11.1 57 57 Calm 29.94 1014 10 16.0934 0 0
4:53 am 04:53 Mostly Cloudy 68 20 53 11.7 59 59 Calm 29.94 1014 10 16.0934 0 0
5:53 am 05:53 Mostly Clear 67 19.4 53 11.7 61 61 WNW 3 6 29.93 1014 10 16.0934 0 0
6:53 am 06:53 Mostly Cloudy 67 19.4 53 11.7 61 61 WNW 3 6 29.94 1014 10 16.0934 0 0
7:53 am 07:53 Partly Cloudy 66 18.9 54 12.2 65 65 NW 3 6 29.95 1014 10 16.0934 0 0
8:53 am 08:53 Partly Cloudy 72 22.2 53 11.7 52 52 SE 6 9 29.95 1014 10 16.0934 0 0
9:53 am 09:53 Sunny 74 23.3 52 11.1 46 46 SE 8 13 29.94 1014 10 16.0934 0 0
10:53 am 10:53 Sunny 76 24.4 52 11.1 43 43 ESE 7 11 29.93 1014 10 16.0934 0 0
11:53 am 11:53 Sunny 80 26.7 51 10.6 37 37 SSE 14 22 29.91 1013 10 16.0934 0 0
12:53 pm 12:53 Sunny 82 27.8 45 7.2 27 27 SSW 24 39 29.87 1012 10 16.0934 0 0
1:53 pm 13:53 Sunny 83 28.3 45 7.2 26 26 S 21 33 29.85 1011 10 16.0934 0 0
2:53 pm 14:53 Partly Cloudy 85 29.4 46 7.8 26 26 SSW 22 35 29.84 1011 10 16.0934 0 0
3:53 pm 15:53 Mostly Sunny 83 28.3 47 8.3 28 28 SW 15 24 29.83 1010 10 16.0934 0 0
4:53 pm 16:53 Mostly Cloudy 81 27.2 48 8.9 32 32 SW 16 26 29.83 1010 10 16.0934 0 0
5:53 pm 17:53 Partly Cloudy 75 23.9 52 11.1 45 45 WSW 15 24 29.86 1011 10 16.0934 0 0
6:53 pm 18:53 Cloudy 72 22.2 52 11.1 50 50 SSW 15 24 29.89 1012 10 16.0934 0 0
7:53 pm 19:53 Cloudy 72 22.2 52 11.1 50 50 SSW 8 13 29.9 1012 10 16.0934 0 0
8:53 pm 20:53 Partly Cloudy 70 21.1 50 10 49 49 SSW 15 24 29.9 1012 10 16.0934 0 0
9:53 pm 21:53 Clear 69 20.6 49 9.4 49 49 SSW 14 22 29.9 1013 10 16.0934 0 0
10:53 pm 22:53 Mostly Clear 68 20 49 9.4 51 51 SW 14 22 29.92 1013 10 16.0934 0 0
11:53 pm 23:53 Clear 67 19.4 48 8.9 51 51 SW 12 19 29.91 1013 10 16.0934 0 0

Powered by AerisWeather